| time (UTC) | temp F | wind direction | speed MPH | gust MPH | rain 1hr in | rain 24hr in | rain mn in | humidity % | barometer mb |
| 20260506013811 | 51 | 244 | 2.0 | 4.0 | 0.00 | 0.00 | 0.00 | 57 | 1012.4 |
| 20260506013309 | 51 | 310 | 5.0 | 8.0 | 0.00 | 0.00 | 0.00 | 57 | 1012.7 |
| 20260506012805 | 52 | 248 | 6.0 | 9.0 | 0.00 | 0.00 | 0.00 | 55 | 1012.4 |
| 20260506012307 | 52 | 195 | 5.0 | 7.0 | 0.00 | 0.00 | 0.00 | 55 | 1012.1 |
| 20260506011759 | 52 | 240 | 6.0 | 10.0 | 0.00 | 0.00 | 0.00 | 55 | 1012.1 |
| 20260506011256 | 52 | 243 | 3.0 | 8.0 | 0.00 | 0.00 | 0.00 | 55 | 1012.2 |
| 20260506010754 | 52 | 247 | 5.0 | 8.0 | 0.00 | 0.00 | 0.00 | 53 | 1012.7 |
| 20260506010251 | 52 | 253 | 6.0 | 9.0 | 0.00 | 0.00 | 0.00 | 53 | 1012.3 |
| 20260506005748 | 52 | 254 | 8.0 | 10.0 | 0.00 | 0.00 | 0.00 | 53 | 1012.1 |
| 20260506005245 | 52 | 265 | 5.0 | 8.0 | 0.00 | 0.00 | 0.00 | 53 | 1012.1 |
| 20260506004740 | 53 | 251 | 7.0 | 9.0 | 0.00 | 0.00 | 0.00 | 53 | 1011.9 |
| 20260506004239 | 53 | 268 | 7.0 | 11.0 | 0.00 | 0.00 | 0.00 | 52 | 1011.9 |
| 20260506003734 | 53 | 256 | 5.0 | 11.0 | 0.00 | 0.00 | 0.00 | 51 | 1012.1 |
| 20260506003231 | 53 | 211 | 5.0 | 14.0 | 0.00 | 0.00 | 0.00 | 51 | 1011.9 |
| 20260506002727 | 53 | 224 | 7.0 | 11.0 | 0.00 | 0.00 | 0.00 | 50 | 1011.9 |
| 20260506002223 | 54 | 231 | 5.0 | 13.0 | 0.00 | 0.00 | 0.00 | 50 | 1011.9 |
| 20260506001719 | 54 | 206 | 10.0 | 11.0 | 0.00 | 0.00 | 0.00 | 50 | 1011.9 |
| 20260506001217 | 54 | 241 | 6.0 | 13.0 | 0.00 | 0.00 | 0.00 | 49 | 1011.9 |
| 20260506000713 | 54 | 227 | 5.0 | 8.0 | 0.00 | 0.00 | 0.00 | 50 | 1012.1 |
| 20260506000212 | 56 | 219 | 7.0 | 9.0 | 0.00 | 0.00 | 0.00 | 47 | 1011.8 |
| 20260505235708 | 56 | 275 | 5.0 | 11.0 | 0.00 | 0.00 | 0.00 | 48 | 1011.8 |
| 20260505235206 | 55 | 212 | 6.0 | 8.0 | 0.00 | 0.00 | 0.00 | 50 | 1011.8 |
| 20260505234703 | 56 | 251 | 6.0 | 11.0 | 0.00 | 0.00 | 0.00 | 49 | 1012.1 |
| 20260505234200 | 57 | 285 | 6.0 | 10.0 | 0.00 | 0.00 | 0.00 | 48 | 1012.1 |
| 20260505233656 | 57 | 240 | 4.0 | 10.0 | 0.00 | 0.00 | 0.00 | 48 | 1011.8 |
| 20260505233154 | 56 | 223 | 4.0 | 10.0 | 0.00 | 0.00 | 0.00 | 50 | 1011.9 |
| 20260505232652 | 56 | 265 | 4.0 | 16.0 | 0.00 | 0.00 | 0.00 | 50 | 1011.9 |
| 20260505232149 | 56 | 244 | 7.0 | 10.0 | 0.00 | 0.00 | 0.00 | 51 | 1012.2 |
| 20260505231645 | 56 | 232 | 5.0 | 7.0 | 0.00 | 0.00 | 0.00 | 52 | 1012.1 |
| 20260505231145 | 55 | 258 | 7.0 | 10.0 | 0.00 | 0.00 | 0.00 | 52 | 1012.1 |
| 20260505230642 | 55 | 223 | 9.0 | 14.0 | 0.00 | 0.00 | 0.00 | 53 | 1012.1 |
| 20260505230138 | 55 | 288 | 8.0 | 11.0 | 0.00 | 0.00 | 0.00 | 54 | 1012.1 |
| 20260505225634 | 54 | 252 | 8.0 | 11.0 | 0.00 | 0.00 | 0.00 | 54 | 1012.1 |
| 20260505225131 | 53 | 241 | 6.0 | 8.0 | 0.00 | 0.00 | 0.00 | 58 | 1012.1 |
| 20260505224628 | 53 | 237 | 7.0 | 14.0 | 0.00 | 0.00 | 0.00 | 58 | 1012.2 |
| 20260505224125 | 52 | 242 | 10.0 | 13.0 | 0.00 | 0.00 | 0.00 | 58 | 1012.2 |
| 20260505223622 | 51 | 190 | 9.0 | 11.0 | 0.00 | 0.00 | 0.00 | 61 | 1012.4 |
| 20260505223118 | 51 | 213 | 15.0 | 18.0 | 0.00 | 0.00 | 0.00 | 59 | 1012.4 |
| 20260505222615 | 53 | 228 | 14.0 | 24.0 | 0.00 | 0.00 | 0.00 | 57 | 1012.9 |
| 20260505222111 | 52 | 247 | 9.0 | 15.0 | 0.00 | 0.00 | 0.00 | 59 | 1012.7 |
| 20260505221608 | 54 | 292 | 12.0 | 15.0 | 0.00 | 0.00 | 0.00 | 55 | 1012.7 |
| 20260505221105 | 54 | 286 | 6.0 | 13.0 | 0.00 | 0.00 | 0.00 | 54 | 1012.7 |
| 20260505220602 | 55 | 234 | 14.0 | 18.0 | 0.00 | 0.00 | 0.00 | 54 | 1012.5 |
| 20260505220100 | 54 | 238 | 8.0 | 15.0 | 0.00 | 0.00 | 0.00 | 54 | 1012.5 |
| 20260505215558 | 54 | 264 | 5.0 | 15.0 | 0.00 | 0.00 | 0.00 | 55 | 1012.5 |
| 20260505215055 | 54 | 231 | 6.0 | 14.0 | 0.00 | 0.00 | 0.00 | 56 | 1012.5 |
| 20260505214553 | 56 | 248 | 8.0 | 15.0 | 0.00 | 0.00 | 0.00 | 54 | 1012.8 |
| 20260505214050 | 56 | 250 | 8.0 | 14.0 | 0.00 | 0.00 | 0.00 | 53 | 1012.5 |
| 20260505213548 | 56 | 210 | 11.0 | 17.0 | 0.00 | 0.00 | 0.00 | 52 | 1012.7 |
| 20260505213044 | 56 | 208 | 13.0 | 19.0 | 0.00 | 0.00 | 0.00 | 52 | 1012.7 |
| 20260505212540 | 56 | 165 | 11.0 | 16.0 | 0.00 | 0.00 | 0.00 | 53 | 1012.7 |
| 20260505212038 | 57 | 192 | 10.0 | 21.0 | 0.00 | 0.00 | 0.00 | 50 | 1012.7 |
| 20260505211535 | 56 | 276 | 15.0 | 21.0 | 0.00 | 0.00 | 0.00 | 53 | 1012.7 |
| 20260505211031 | 55 | 245 | 13.0 | 23.0 | 0.00 | 0.00 | 0.00 | 54 | 1013.0 |
| 20260505210528 | 57 | 199 | 16.0 | 19.0 | 0.00 | 0.00 | 0.00 | 52 | 1013.2 |
| 20260505210025 | 57 | 325 | 10.0 | 15.0 | 0.00 | 0.00 | 0.00 | 54 | 1012.8 |
| 20260505205523 | 56 | 216 | 6.0 | 16.0 | 0.00 | 0.00 | 0.00 | 56 | 1012.9 |
| 20260505205020 | 56 | 219 | 9.0 | 15.0 | 0.00 | 0.00 | 0.00 | 55 | 1013.0 |
| 20260505204518 | 55 | 256 | 13.0 | 19.0 | 0.00 | 0.00 | 0.00 | 57 | 1013.2 |
| 20260505204015 | 56 | 281 | 15.0 | 17.0 | 0.00 | 0.00 | 0.00 | 56 | 1012.9 |
| 20260505203511 | 55 | 197 | 10.0 | 18.0 | 0.00 | 0.00 | 0.00 | 58 | 1013.3 |
| 20260505203008 | 54 | 291 | 10.0 | 14.0 | 0.00 | 0.00 | 0.00 | 61 | 1013.2 |
| 20260505202504 | 54 | 268 | 9.0 | 18.0 | 0.00 | 0.00 | 0.00 | 60 | 1013.3 |
| 20260505202000 | 54 | 217 | 9.0 | 16.0 | 0.00 | 0.00 | 0.00 | 61 | 1013.4 |
| 20260505201457 | 53 | 238 | 9.0 | 19.0 | 0.00 | 0.00 | 0.00 | 61 | 1013.0 |
| 20260505200955 | 53 | 260 | 8.0 | 14.0 | 0.00 | 0.00 | 0.00 | 64 | 1013.0 |
| 20260505200453 | 54 | 258 | 7.0 | 16.0 | 0.00 | 0.00 | 0.00 | 61 | 1013.3 |
| 20260505195948 | 54 | 187 | 9.0 | 14.0 | 0.00 | 0.00 | 0.00 | 62 | 1013.4 |
| 20260505195446 | 54 | 263 | 12.0 | 17.0 | 0.00 | 0.00 | 0.00 | 63 | 1013.3 |
| 20260505194943 | 54 | 223 | 8.0 | 16.0 | 0.00 | 0.00 | 0.00 | 67 | 1013.3 |
| 20260505194440 | 53 | 273 | 8.0 | 15.0 | 0.00 | 0.00 | 0.00 | 67 | 1013.2 |
| 20260505193940 | 53 | 230 | 7.0 | 16.0 | 0.00 | 0.00 | 0.00 | 69 | 1013.2 |
| 20260505193438 | 52 | 257 | 8.0 | 15.0 | 0.00 | 0.00 | 0.00 | 72 | 1013.2 |
| 20260505192935 | 52 | 294 | 8.0 | 15.0 | 0.00 | 0.00 | 0.00 | 75 | 1013.3 |
| 20260505192434 | 50 | 229 | 5.0 | 11.0 | 0.00 | 0.00 | 0.00 | 80 | 1013.4 |
| 20260505191931 | 50 | 208 | 11.0 | 15.0 | 0.00 | 0.00 | 0.00 | 79 | 1013.5 |
| 20260505191430 | 50 | 198 | 7.0 | 10.0 | 0.00 | 0.00 | 0.00 | 83 | 1013.4 |
| 20260505190926 | 49 | 241 | 7.0 | 11.0 | 0.00 | 0.00 | 0.00 | 83 | 1013.7 |
| 20260505190421 | 50 | 245 | 9.0 | 15.0 | 0.00 | 0.00 | 0.00 | 76 | 1013.9 |
| 20260505185916 | 52 | 272 | 6.0 | 18.0 | 0.00 | 0.00 | 0.00 | 67 | 1013.7 |
| 20260505185414 | 56 | 253 | 11.0 | 21.0 | 0.00 | 0.00 | 0.00 | 55 | 1013.3 |
| 20260505184910 | 56 | 182 | 5.0 | 10.0 | 0.00 | 0.00 | 0.00 | 52 | 1013.3 |
| 20260505184407 | 57 | 226 | 7.0 | 14.0 | 0.00 | 0.00 | 0.00 | 49 | 1013.2 |
| 20260505183904 | 58 | 173 | 11.0 | 14.0 | 0.00 | 0.00 | 0.00 | 48 | 1013.2 |
| 20260505183401 | 57 | 157 | 7.0 | 16.0 | 0.00 | 0.00 | 0.00 | 50 | 1013.2 |
| 20260505182857 | 56 | 234 | 10.0 | 14.0 | 0.00 | 0.00 | 0.00 | 51 | 1013.4 |
| 20260505182355 | 56 | 244 | 8.0 | 13.0 | 0.00 | 0.00 | 0.00 | 52 | 1013.5 |
| 20260505181851 | 55 | 222 | 12.0 | 14.0 | 0.00 | 0.00 | 0.00 | 51 | 1013.4 |
| 20260505181348 | 55 | 221 | 9.0 | 10.0 | 0.00 | 0.00 | 0.00 | 54 | 1013.4 |
| 20260505180845 | 55 | 250 | 6.0 | 10.0 | 0.00 | 0.00 | 0.00 | 53 | 1013.5 |
| 20260505180341 | 54 | 206 | 8.0 | 11.0 | 0.00 | 0.00 | 0.00 | 53 | 1013.5 |
| 20260505175838 | 55 | 230 | 9.0 | 14.0 | 0.00 | 0.00 | 0.00 | 53 | 1013.5 |
| 20260505175334 | 55 | 214 | 8.0 | 9.0 | 0.00 | 0.00 | 0.00 | 52 | 1013.8 |
| 20260505174831 | 55 | 216 | 7.0 | 13.0 | 0.00 | 0.00 | 0.00 | 51 | 1013.7 |
| 20260505174329 | 55 | 188 | 4.0 | 7.0 | 0.00 | 0.00 | 0.00 | 51 | 1013.5 |
| 20260505173824 | 54 | 187 | 0.0 | 4.0 | 0.00 | 0.00 | 0.00 | 52 | 1013.8 |
| 20260505173321 | 54 | 212 | 4.0 | 9.0 | 0.00 | 0.00 | 0.00 | 52 | 1013.7 |
| 20260505172818 | 54 | 216 | 5.0 | 9.0 | 0.00 | 0.00 | 0.00 | 53 | 1013.8 |
| 20260505172316 | 54 | 167 | 4.0 | 8.0 | 0.00 | 0.00 | 0.00 | 51 | 1013.9 |
| 20260505171810 | 55 | 236 | 1.0 | 7.0 | 0.00 | 0.00 | 0.00 | 51 | 1014.0 |
| 20260505171307 | 54 | 162 | 1.0 | 3.0 | 0.00 | 0.00 | 0.00 | 52 | 1014.0 |
| 20260505170803 | 52 | 168 | 1.0 | 2.0 | 0.00 | 0.00 | 0.00 | 54 | 1014.0 |
| 20260505170301 | 53 | 224 | 5.0 | 7.0 | 0.00 | 0.00 | 0.00 | 52 | 1013.9 |
| 20260505165755 | 53 | 281 | 3.0 | 4.0 | 0.00 | 0.00 | 0.00 | 53 | 1014.1 |
| 20260505165251 | 51 | 209 | 0.0 | 3.0 | 0.00 | 0.00 | 0.00 | 55 | 1014.0 |
| 20260505164747 | 51 | 253 | 3.0 | 7.0 | 0.00 | 0.00 | 0.00 | 55 | 1014.1 |
| 20260505164244 | 51 | 326 | 5.0 | 8.0 | 0.00 | 0.00 | 0.00 | 55 | 1014.0 |
| 20260505163742 | 50 | 303 | 4.0 | 7.0 | 0.00 | 0.00 | 0.00 | 57 | 1014.0 |
| 20260505163241 | 50 | 309 | 5.0 | 9.0 | 0.00 | 0.00 | 0.00 | 57 | 1014.4 |
| 20260505162738 | 50 | 351 | 7.0 | 8.0 | 0.00 | 0.00 | 0.00 | 57 | 1014.3 |
| 20260505162235 | 51 | 341 | 4.0 | 4.0 | 0.00 | 0.00 | 0.00 | 56 | 1014.4 |
| 20260505161731 | 50 | 221 | 3.0 | 7.0 | 0.00 | 0.00 | 0.00 | 57 | 1014.4 |
| 20260505161230 | 50 | 255 | 6.0 | 9.0 | 0.00 | 0.00 | 0.00 | 56 | 1014.5 |
| 20260505160726 | 50 | 3 | 4.0 | 7.0 | 0.00 | 0.00 | 0.00 | 57 | 1014.4 |
| 20260505160225 | 50 | 340 | 4.0 | 9.0 | 0.00 | 0.00 | 0.00 | 56 | 1014.4 |
| 20260505153203 | 50 | 268 | 4.0 | 4.0 | 0.00 | 0.00 | 0.00 | 56 | 1014.8 |
| 20260505152700 | 50 | 319 | 3.0 | 10.0 | 0.00 | 0.00 | 0.00 | 57 | 1014.5 |
| 20260505152156 | 49 | 317 | 3.0 | 9.0 | 0.00 | 0.00 | 0.00 | 59 | 1014.6 |
| 20260505151651 | 49 | 352 | 5.0 | 11.0 | 0.00 | 0.00 | 0.00 | 58 | 1014.8 |
| 20260505151149 | 49 | 264 | 2.0 | 6.0 | 0.00 | 0.00 | 0.00 | 60 | 1014.9 |
| 20260505150645 | 49 | 304 | 5.0 | 6.0 | 0.00 | 0.00 | 0.00 | 61 | 1015.0 |
| 20260505150142 | 48 | 272 | 3.0 | 6.0 | 0.00 | 0.00 | 0.00 | 61 | 1014.8 |
| 20260505140610 | 52 | 247 | 3.0 | 8.0 | 0.00 | 0.00 | 0.00 | 49 | 1014.9 |
| 20260505140108 | 52 | 265 | 3.0 | 6.0 | 0.00 | 0.00 | 0.00 | 49 | 1014.9 |
| 20260505125024 | 50 | 278 | 6.0 | 10.0 | 0.00 | 0.00 | 0.00 | 49 | 1014.4 |
| 20260505124520 | 50 | 273 | 4.0 | 9.0 | 0.00 | 0.00 | 0.00 | 49 | 1014.4 |
| 20260505124017 | 50 | 262 | 6.0 | 8.0 | 0.00 | 0.00 | 0.00 | 48 | 1014.3 |
| 20260505123514 | 50 | 276 | 2.0 | 7.0 | 0.00 | 0.00 | 0.00 | 47 | 1014.3 |
| 20260505123009 | 50 | 266 | 4.0 | 6.0 | 0.00 | 0.00 | 0.00 | 47 | 1014.4 |
| 20260505122507 | 51 | 253 | 4.0 | 6.0 | 0.00 | 0.00 | 0.00 | 46 | 1014.4 |
| 20260505122004 | 51 | 252 | 5.0 | 6.0 | 0.00 | 0.00 | 0.00 | 46 | 1014.5 |
| 20260505121500 | 51 | 225 | 3.0 | 7.0 | 0.00 | 0.00 | 0.00 | 45 | 1014.4 |
| 20260505120956 | 51 | 264 | 3.0 | 6.0 | 0.00 | 0.00 | 0.00 | 45 | 1014.3 |
| 20260505120453 | 51 | 236 | 5.0 | 6.0 | 0.00 | 0.00 | 0.00 | 44 | 1014.3 |
| 20260505115952 | 51 | 239 | 3.0 | 7.0 | 0.00 | 0.00 | 0.00 | 44 | 1014.1 |
| 20260505115449 | 51 | 240 | 4.0 | 6.0 | 0.00 | 0.00 | 0.00 | 43 | 1014.3 |
| 20260505114947 | 51 | 232 | 5.0 | 7.0 | 0.00 | 0.00 | 0.00 | 43 | 1014.3 |
| 20260505114443 | 51 | 249 | 3.0 | 3.0 | 0.00 | 0.00 | 0.00 | 42 | 1014.0 |
| 20260505113940 | 51 | 233 | 3.0 | 4.0 | 0.00 | 0.00 | 0.00 | 41 | 1013.9 |
| 20260505113436 | 51 | 237 | 2.0 | 7.0 | 0.00 | 0.00 | 0.00 | 41 | 1014.3 |
| 20260505112931 | 51 | 228 | 3.0 | 4.0 | 0.00 | 0.00 | 0.00 | 40 | 1014.3 |
| 20260505112429 | 52 | 233 | 1.0 | 3.0 | 0.00 | 0.00 | 0.00 | 40 | 1014.3 |
| 20260505111925 | 52 | 234 | 3.0 | 7.0 | 0.00 | 0.00 | 0.00 | 39 | 1014.1 |
| 20260505111420 | 52 | 244 | 4.0 | 8.0 | 0.00 | 0.00 | 0.00 | 39 | 1014.3 |
| 20260505110917 | 51 | 226 | 5.0 | 7.0 | 0.00 | 0.00 | 0.00 | 40 | 1014.3 |
| 20260505110414 | 52 | 224 | 2.0 | 3.0 | 0.00 | 0.00 | 0.00 | 40 | 1014.4 |
| 20260505101844 | 52 | 225 | 4.0 | 6.0 | 0.00 | 0.00 | 0.00 | 36 | 1014.0 |
| 20260505101339 | 51 | 251 | 4.0 | 4.0 | 0.00 | 0.00 | 0.00 | 36 | 1013.9 |
| 20260505100835 | 51 | 208 | 4.0 | 4.0 | 0.00 | 0.00 | 0.00 | 39 | 1013.8 |
| 20260505100332 | 51 | 213 | 2.0 | 3.0 | 0.00 | 0.00 | 0.00 | 39 | 1013.9 |
| 20260505095828 | 52 | 205 | 3.0 | 4.0 | 0.00 | 0.00 | 0.00 | 38 | 1014.0 |
| 20260505095326 | 53 | 187 | 5.0 | 7.0 | 0.00 | 0.00 | 0.00 | 36 | 1013.9 |
| 20260505094821 | 53 | 211 | 3.0 | 4.0 | 0.00 | 0.00 | 0.00 | 30 | 1013.7 |
| 20260505094318 | 53 | 261 | 3.0 | 4.0 | 0.00 | 0.00 | 0.00 | 33 | 1013.8 |
| 20260505093814 | 53 | 259 | 1.0 | 3.0 | 0.00 | 0.00 | 0.00 | 34 | 1013.5 |
| 20260505093312 | 53 | 323 | 6.0 | 9.0 | 0.00 | 0.00 | 0.00 | 34 | 1013.8 |
| 20260505092808 | 53 | 279 | 2.0 | 4.0 | 0.00 | 0.00 | 0.00 | 36 | 1013.8 |
| 20260505092307 | 53 | 238 | 1.0 | 2.0 | 0.00 | 0.00 | 0.00 | 38 | 1013.9 |
| 20260505091804 | 53 | 295 | 3.0 | 7.0 | 0.00 | 0.00 | 0.00 | 37 | 1013.8 |
| 20260505091301 | 54 | 307 | 4.0 | 7.0 | 0.00 | 0.00 | 0.00 | 37 | 1014.0 |
| 20260505090759 | 54 | 241 | 7.0 | 11.0 | 0.00 | 0.00 | 0.00 | 37 | 1014.1 |
| 20260505090257 | 54 | 275 | 3.0 | 7.0 | 0.00 | 0.00 | 0.00 | 37 | 1014.0 |
| 20260505085754 | 54 | 275 | 4.0 | 14.0 | 0.00 | 0.00 | 0.00 | 37 | 1013.9 |
| 20260505085253 | 54 | 265 | 7.0 | 10.0 | 0.00 | 0.00 | 0.00 | 37 | 1014.0 |
| 20260505084749 | 54 | 258 | 7.0 | 10.0 | 0.00 | 0.00 | 0.00 | 37 | 1013.9 |
| 20260505084244 | 55 | 293 | 4.0 | 9.0 | 0.00 | 0.00 | 0.00 | 37 | 1014.0 |
| 20260505083740 | 55 | 302 | 5.0 | 10.0 | 0.00 | 0.00 | 0.00 | 36 | 1014.4 |
| 20260505083237 | 55 | 256 | 7.0 | 13.0 | 0.00 | 0.00 | 0.00 | 36 | 1014.1 |
| 20260505082733 | 55 | 304 | 6.0 | 8.0 | 0.00 | 0.00 | 0.00 | 36 | 1014.1 |
| 20260505082230 | 55 | 265 | 7.0 | 11.0 | 0.00 | 0.00 | 0.00 | 36 | 1014.3 |
| 20260505081726 | 55 | 253 | 6.0 | 9.0 | 0.00 | 0.00 | 0.00 | 36 | 1014.3 |
| 20260505081224 | 56 | 264 | 10.0 | 11.0 | 0.00 | 0.00 | 0.00 | 35 | 1014.1 |
| 20260505080720 | 56 | 275 | 8.0 | 16.0 | 0.00 | 0.00 | 0.00 | 35 | 1014.5 |
| 20260505080216 | 56 | 229 | 6.0 | 13.0 | 0.00 | 0.00 | 0.00 | 35 | 1014.8 |
| 20260505075712 | 56 | 250 | 4.0 | 9.0 | 0.00 | 0.00 | 0.00 | 35 | 1014.4 |
| 20260505075209 | 56 | 261 | 7.0 | 9.0 | 0.00 | 0.00 | 0.00 | 35 | 1014.5 |
| 20260505074706 | 56 | 282 | 5.0 | 9.0 | 0.00 | 0.00 | 0.00 | 34 | 1014.5 |
| 20260505074203 | 56 | 248 | 9.0 | 10.0 | 0.00 | 0.00 | 0.00 | 34 | 1014.4 |
| 20260505073701 | 56 | 289 | 10.0 | 14.0 | 0.00 | 0.00 | 0.00 | 34 | 1014.4 |
| 20260505073159 | 56 | 270 | 3.0 | 9.0 | 0.00 | 0.00 | 0.00 | 34 | 1014.5 |
| 20260505072654 | 56 | 249 | 3.0 | 13.0 | 0.00 | 0.00 | 0.00 | 33 | 1014.4 |
| 20260505072151 | 56 | 280 | 6.0 | 11.0 | 0.00 | 0.00 | 0.00 | 33 | 1014.4 |
| 20260505071646 | 56 | 249 | 8.0 | 14.0 | 0.00 | 0.00 | 0.00 | 33 | 1014.5 |
| 20260505071144 | 56 | 266 | 9.0 | 14.0 | 0.00 | 0.00 | 0.00 | 33 | 1014.6 |
| 20260505070641 | 57 | 249 | 12.0 | 16.0 | 0.00 | 0.00 | 0.00 | 32 | 1014.5 |
| 20260505070138 | 57 | 238 | 11.0 | 11.0 | 0.00 | 0.00 | 0.00 | 32 | 1014.4 |
| 20260505065633 | 57 | 257 | 3.0 | 11.0 | 0.00 | 0.00 | 0.00 | 32 | 1014.6 |
| 20260505065130 | 57 | 316 | 10.0 | 11.0 | 0.00 | 0.00 | 0.00 | 31 | 1014.5 |
| 20260505064627 | 57 | 251 | 5.0 | 9.0 | 0.00 | 0.00 | 0.00 | 31 | 1014.6 |
| 20260505064125 | 57 | 229 | 2.0 | 7.0 | 0.00 | 0.00 | 0.00 | 31 | 1014.5 |
| 20260505063623 | 57 | 234 | 2.0 | 7.0 | 0.00 | 0.00 | 0.00 | 31 | 1014.0 |
| 20260505063118 | 58 | 286 | 4.0 | 7.0 | 0.00 | 0.00 | 0.00 | 30 | 1014.6 |
| 20260505062615 | 58 | 284 | 4.0 | 7.0 | 0.00 | 0.00 | 0.00 | 30 | 1014.6 |
| 20260505062113 | 58 | 240 | 5.0 | 7.0 | 0.00 | 0.00 | 0.00 | 29 | 1014.9 |
| 20260505061609 | 58 | 254 | 4.0 | 7.0 | 0.00 | 0.00 | 0.00 | 29 | 1014.9 |
| 20260505061108 | 58 | 188 | 8.0 | 9.0 | 0.00 | 0.00 | 0.00 | 29 | 1014.8 |
| 20260505060605 | 58 | 216 | 1.0 | 2.0 | 0.00 | 0.00 | 0.00 | 29 | 1015.0 |
| 20260505055557 | 59 | 225 | 3.0 | 6.0 | 0.00 | 0.00 | 0.00 | 29 | 1014.9 |
| 20260505055054 | 59 | 227 | 1.0 | 7.0 | 0.00 | 0.00 | 0.00 | 28 | 1014.8 |
| 20260505054551 | 59 | 227 | 7.0 | 10.0 | 0.00 | 0.00 | 0.00 | 28 | 1014.6 |
| 20260505054049 | 59 | 257 | 4.0 | 10.0 | 0.00 | 0.00 | 0.00 | 28 | 1014.5 |
| 20260505053546 | 59 | 221 | 6.0 | 7.0 | 0.00 | 0.00 | 0.00 | 28 | 1014.8 |
| 20260505053042 | 59 | 256 | 12.0 | 13.0 | 0.00 | 0.00 | 0.00 | 27 | 1014.8 |
| 20260505052539 | 59 | 287 | 6.0 | 9.0 | 0.00 | 0.00 | 0.00 | 27 | 1014.5 |
| 20260505052037 | 59 | 233 | 6.0 | 10.0 | 0.00 | 0.00 | 0.00 | 27 | 1014.4 |
| 20260505051533 | 60 | 224 | 4.0 | 6.0 | 0.00 | 0.00 | 0.00 | 27 | 1014.5 |
| 20260505051032 | 60 | 237 | 8.0 | 10.0 | 0.00 | 0.00 | 0.00 | 27 | 1014.4 |
| 20260505050530 | 60 | 212 | 7.0 | 10.0 | 0.00 | 0.00 | 0.00 | 27 | 1014.1 |
| 20260505041457 | 61 | 241 | 2.0 | 9.0 | 0.00 | 0.00 | 0.00 | 27 | 1013.9 |
| 20260505040955 | 61 | 214 | 9.0 | 13.0 | 0.00 | 0.00 | 0.00 | 27 | 1014.3 |
| 20260505040452 | 61 | 256 | 7.0 | 13.0 | 0.00 | 0.00 | 0.00 | 27 | 1014.1 |
| 20260505035949 | 61 | 253 | 6.0 | 13.0 | 0.00 | 0.00 | 0.00 | 26 | 1014.3 |
| 20260505035444 | 61 | 232 | 11.0 | 15.0 | 0.00 | 0.00 | 0.00 | 26 | 1014.3 |
| 20260505034942 | 61 | 245 | 7.0 | 13.0 | 0.00 | 0.00 | 0.00 | 26 | 1014.3 |
| 20260505034438 | 62 | 273 | 10.0 | 17.0 | 0.00 | 0.00 | 0.00 | 26 | 1014.1 |
| 20260505033936 | 62 | 235 | 7.0 | 13.0 | 0.00 | 0.00 | 0.00 | 26 | 1013.9 |
| 20260505033432 | 62 | 160 | 11.0 | 17.0 | 0.00 | 0.00 | 0.00 | 25 | 1014.0 |
| 20260505032931 | 62 | 286 | 9.0 | 19.0 | 0.00 | 0.00 | 0.00 | 25 | 1013.9 |
| 20260505032427 | 62 | 280 | 9.0 | 14.0 | 0.00 | 0.00 | 0.00 | 25 | 1014.0 |
| 20260505031924 | 63 | 242 | 9.0 | 17.0 | 0.00 | 0.00 | 0.00 | 24 | 1013.9 |
| 20260505031421 | 63 | 274 | 15.0 | 22.0 | 0.00 | 0.00 | 0.00 | 24 | 1013.8 |
| 20260505030918 | 63 | 294 | 13.0 | 19.0 | 0.00 | 0.00 | 0.00 | 24 | 1013.8 |
| 20260505030413 | 63 | 230 | 9.0 | 16.0 | 0.00 | 0.00 | 0.00 | 24 | 1013.7 |
| 20260505025909 | 63 | 232 | 10.0 | 14.0 | 0.00 | 0.00 | 0.00 | 24 | 1013.5 |
| 20260505025407 | 63 | 252 | 9.0 | 22.0 | 0.00 | 0.00 | 0.00 | 23 | 1013.7 |
| 20260505024906 | 63 | 232 | 7.0 | 15.0 | 0.00 | 0.00 | 0.00 | 23 | 1013.4 |
| 20260505024403 | 64 | 246 | 8.0 | 13.0 | 0.00 | 0.00 | 0.00 | 23 | 1013.4 |
| 20260505023859 | 64 | 213 | 7.0 | 17.0 | 0.00 | 0.00 | 0.00 | 23 | 1013.5 |
| 20260505023357 | 64 | 261 | 7.0 | 13.0 | 0.00 | 0.00 | 0.00 | 24 | 1013.4 |
| 20260505022854 | 64 | 234 | 7.0 | 16.0 | 0.00 | 0.00 | 0.00 | 23 | 1013.5 |
| 20260505022350 | 64 | 245 | 8.0 | 13.0 | 0.00 | 0.00 | 0.00 | 24 | 1013.5 |
| 20260505021848 | 64 | 177 | 5.0 | 10.0 | 0.00 | 0.00 | 0.00 | 24 | 1013.4 |
| 20260505021344 | 64 | 255 | 6.0 | 13.0 | 0.00 | 0.00 | 0.00 | 24 | 1013.3 |
| 20260505020840 | 64 | 242 | 6.0 | 17.0 | 0.00 | 0.00 | 0.00 | 23 | 1013.3 |
| 20260505020336 | 64 | 201 | 7.0 | 13.0 | 0.00 | 0.00 | 0.00 | 23 | 1013.2 |
| 20260505015833 | 64 | 253 | 8.0 | 10.0 | 0.00 | 0.00 | 0.00 | 23 | 1013.3 |
| 20260505015330 | 64 | 249 | 6.0 | 10.0 | 0.00 | 0.00 | 0.00 | 23 | 1013.3 |
| 20260505014827 | 64 | 273 | 3.0 | 10.0 | 0.00 | 0.00 | 0.00 | 23 | 1013.3 |
| 20260505014324 | 64 | 257 | 6.0 | 14.0 | 0.00 | 0.00 | 0.00 | 22 | 1013.3 |